Location: Gad�tanya
(48.0500°N, 20.8500°E)
Time: 10:47:09
(UTC+00:00)

Cosmos 1110 Rocket - Pass Details

Date: 05 July 2020
Orbit: 752 x 782 km, 74.0° (Epoch: 14 August)

Event Time Altitude Azimuth Distance (km) Brightness Sun altitude
Rises 23:30:18 0° 334° (NNW) 3,252 8.1 -18.4°
Reaches altitude 10° 23:32:42 10° 332° (NNW) 2,325 7.2 -18.4°
Maximum altitude 23:37:55 65° 252° (WSW) 854 4.0 -18.2°
Enters shadow 23:40:19 32° 181° (S) 1,310 4.7 -18.1°
